Flag for Germany Weather past 2 weeks in Friedrichshafen, Baden-Württemberg, Germany

Now
30 °F

Light snow. Mostly cloudy.


Feels Like: 25 °F
Forecast: 32 / 39 °F
Wind: 5 mph from South

Location: Friedrichshafen Airport

Current Time: Jan 26, 2015 at 8:03:48 PM

Latest Report: Jan 26, 2015 at 7:20 PM


Visibility: 1 mi

Pressure: 30.18 "Hg

Humidity: 93%

Dew point: 28 °F

Location of FriedrichshafenLocation

Historic Weather in Friedrichshafen — Graph

°F

Friedrichshafen temperature yesterday

Maximum temperature yesterday: 37 °F (at 12:50 PM)
Minimum temperature yesterday: 28 °F (at 8:50 AM)
Average temperature yesterday: 32 °F

Past Weeks' High & Low Weather Summary

 TemperatureHumidityPressure
High50 °F (Jan 14, 1:50 AM)93% (Jan 13, 12:50 AM)30.42 "Hg (Jan 13, 12:50 AM)
Low23 °F (Jan 13, 5:50 AM)40% (Jan 14, 1:50 AM)29.65 "Hg (Jan 16, 3:50 PM)
Average34 °F80%30.02 "Hg
* Reported Jan 11 6:20 PM — Jan 26 6:50 PM, Friedrichshafen, Weather by CustomWeather, © 2014

Note: Actual official high and low records may vary slightly from our data, if they occured in-between our weather recording intervals... More about our weather records

Advertising

Friedrichshafen weather history for previous 24 hours

 ConditionsComfort  
Time TempWeatherWind HumidityBarometerVisibility
6:50 PM
Jan 26
30 °FLight snow. Low clouds.5 mph93%30.18 "Hg1 mi
6:20 PM30 °FLight snow. Mostly cloudy.3 mph93%30.18 "Hg2 mi
5:50 PM30 °FLight snow. Overcast.6 mph86%30.21 "Hg2 mi
5:20 PM30 °FLight snow. Mostly cloudy.6 mph86%30.21 "Hg2 mi
4:50 PM30 °FLight snow. Overcast.6 mph86%30.21 "HgN/A
4:20 PM30 °FLight snow. More clouds than sun.6 mph86%30.21 "Hg3 mi
3:50 PM30 °FSnow flurries. Mostly cloudy.6 mph86%30.21 "Hg2 mi
3:20 PM32 °FSprinkles. Mostly cloudy.6 mph75%30.24 "HgN/A
2:50 PM32 °FMore clouds than sun.7 mph69%30.24 "HgN/A
2:20 PM32 °FSunny.6 mph75%30.24 "Hg10 mi
1:50 PM32 °FMore clouds than sun.7 mph75%30.24 "HgN/A
1:20 PM32 °FPassing clouds.6 mph75%30.27 "HgN/A
12:50 PM32 °FSunny.8 mph69%30.27 "Hg10 mi
12:20 PM32 °FSunny.5 mph75%30.30 "Hg10 mi
11:50 AM32 °FOvercast.7 mph69%30.30 "HgN/A
11:20 AM32 °FMostly cloudy.3 mph75%30.33 "HgN/A
10:50 AM32 °FMore clouds than sun.3 mph75%30.33 "HgN/A
10:20 AM32 °FMore clouds than sun.2 mph75%30.33 "HgN/A
9:50 AM34 °FMostly cloudy.1 mph70%30.33 "HgN/A
9:20 AM30 °FPartly sunny.1 mph75%30.33 "HgN/A
8:50 AM28 °FBroken clouds.1 mph86%30.33 "HgN/A
8:20 AM27 °FScattered clouds.2 mph86%30.33 "HgN/A
7:50 AM28 °FPassing clouds.1 mph80%30.33 "HgN/A
7:20 AM30 °FOvercast.3 mph80%30.33 "HgN/A
6:50 AM30 °FMostly cloudy.1 mph80%30.33 "HgN/A
6:20 AM30 °FMostly cloudy.2 mph80%30.33 "HgN/A
5:50 AM30 °FOvercast.5 mph80%30.33 "HgN/A
5:20 AM30 °FMostly cloudy.6 mph80%30.33 "HgN/A
4:50 AM30 °FMostly cloudy.5 mph80%30.33 "HgN/A
4:20 AM30 °FOvercast.5 mph80%30.33 "HgN/A
3:50 AM30 °FOvercast.2 mph86%30.36 "HgN/A
3:20 AM30 °FOvercast.2 mph86%30.36 "HgN/A
2:50 AM28 °FOvercast.3 mph93%30.36 "Hg3 mi
2:20 AM30 °FOvercast.2 mph86%30.36 "Hg3 mi
1:50 AM30 °FOvercast.1 mph86%30.36 "Hg4 mi
1:20 AM30 °FOvercast.1 mph86%30.36 "Hg5 mi
12:50 AM30 °FOvercast.1 mph86%30.36 "Hg4 mi
12:20 AM30 °FOvercast.2 mph86%30.36 "Hg4 mi
11:50 PM
Jan 25
30 °FOvercast.No wind86%30.39 "Hg3 mi
11:20 PM30 °FOvercast.2 mph86%30.39 "Hg4 mi
10:50 PM30 °FMostly cloudy.2 mph86%30.39 "Hg4 mi
10:20 PM30 °FOvercast.1 mph86%30.39 "HgN/A
9:50 PM30 °FPassing clouds.1 mph86%30.39 "Hg6 mi
9:20 PM30 °FPassing clouds.No wind86%30.39 "Hg6 mi
8:50 PM30 °FPassing clouds.1 mph86%30.39 "HgN/A
8:20 PM30 °FPassing clouds.No wind86%30.39 "HgN/A
Weather by CustomWeather, © 2014

See weather overviewHow to use our weather pages